Regional Weather Roundup
Issued by NWS

Home | Current Version | Previous Version | Text Only | Print | Product List | Glossary Off
Versions: 1 2 3 4 5 6 7 8 9 10 11 12 13 14 15 16 17 18 19 20 21 22 23 24 25 26 27 28 29 30 31 32 33 34 35 36 37 38 39 40 41 42 43 44 45 46 47 48 49 50

559
ASUS43 KOAX 160302
RWRNE

WEATHER ROUNDUP FOR NEBRASKA
NATIONAL WEATHER SERVICE OMAHA NE
900 PM CST SUN JAN 15 2017

NOTES: SATELLITE DATA IS BEING USED TO AUGMENT CLOUD COVER ABOVE
       12000 FEET.
       "FAIR" INDICATES FEW OR NO CLOUDS BELOW 12,000 FEET WITH NO
       SIGNIFICANT WEATHER AND/OR OBSTRUCTIONS TO VISIBILITY.

  * THESE STATIONS DO NOT REPORT WEATHER SUCH AS RAIN...SNOW OR FOG.

NEZ001>004-019>022-054>056-160400-
NEBRASKA PANHANDLE

CITY           SKY/WX    TMP DP  RH WIND       PRES   REMARKS
SCOTTSBLUFF    CLOUDY    29  24  82 N6        30.00R WCI  23
ALLIANCE       CLOUDY    28  23  81 N5        29.98S WCI  23
CHADRON        CLOUDY    22  19  89 CALM      30.03S
KIMBALL        FLURRIES  32  27  80 CALM      29.97S
SIDNEY         CLOUDY    30  27  88 CALM      29.98S
$$

NEZ057>060-069>072-079>082-160400-
SOUTHWEST NEBRASKA

CITY           SKY/WX    TMP DP  RH WIND       PRES   REMARKS
NORTH PLATTE   FRZ RAIN  31  29  92 E5        30.03S FOG     WCI  26
IMPERIAL       FRZ RAIN  31  29  92 SE5       30.01S WCI  26
LEXINGTON      MIX PCPN  31  30  94 SE3       30.06S
MCCOOK         MIX PCPN  30  30 100 SE6       30.05R FOG     WCI  24
OGALLALA       MIX PCPN  32  31  94 CALM      30.00F
$$

NEZ005>010-023>029-035>040-094-160400-
NORTH CENTRAL NEBRASKA

CITY           SKY/WX    TMP DP  RH WIND       PRES   REMARKS
VALENTINE      CLOUDY    31  22  69 S3        30.04S
AINSWORTH      CLOUDY    32  26  78 S3        30.04S
BROKEN BOW     CLOUDY    31  30  96 SE5       30.04S FOG     WCI  26
O`NEILL        CLOUDY    32  26  76 S6        30.08S WCI  27
ORD            FRZ RAIN  31  28  89 E6        30.07F FOG     WCI  25
THEDFORD       CLOUDY    34  27  73 CALM      30.03S
$$

NEZ041-046>049-061>064-073>077-083>087-160400-
SOUTH CENTRAL NEBRASKA

CITY           SKY/WX    TMP DP  RH WIND       PRES   REMARKS
GRAND ISLAND   CLOUDY    30  30 100 SE6       30.09F FOG     WCI  24
AURORA         CLOUDY    30  29  98 E5        30.09F FOG     WCI  25
HASTINGS       CLOUDY    30  28  92 SE6       30.09F FOG     WCI  24
HEBRON         MIX PCPN  31  31  98 E6        30.11F WCI  25
HOLDREGE       MIX PCPN  31  29  96 E6        30.06F WCI  25
KEARNEY *      CLOUDY    30  27  86 CALM      30.07F
YORK           CLOUDY    30  30 100 CALM      30.11F
$$

NEZ011>018-030>034-042>045-160400-
NORTHEAST NEBRASKA

CITY           SKY/WX    TMP DP  RH WIND       PRES   REMARKS
NORFOLK        MIX PCPN  29  26  89 SE5       30.11F WCI  24
ALBION         MIX PCPN  31  29  93 SE6       30.10F WCI  25
BLAIR          MIX PCPN  32  31  95 E5        30.13F WCI  27
FREMONT        CLOUDY    31  31 100 CALM      30.14F
TEKAMAH        FRZ RAIN  32  29  88 SE6       30.17F FOG     WCI  26
WAYNE          CLOUDY    30  27  89 S5        30.14F WCI  25
$$

NEZ050>053-065>068-078-088>093-160400-
SOUTHEAST NEBRASKA

CITY           SKY/WX    TMP DP  RH WIND       PRES   REMARKS
LINCOLN        FRZ RAIN  31  30  96 E5        30.16S FOG     WCI  26
OMAHA EPPLEY   FRZ RAIN  32  28  85 E5        30.16F WCI  27
BEATRICE       MIX PCPN  32  31  96 E5        30.13F WCI  27
FALLS CITY     MIX PCPN  32  31  96 E7        30.15F WCI  26
NEBRASKA CITY  CLOUDY    32  32 100 SE5       30.15S WCI  27
PLATTSMOUTH    MIX PCPN  32  29  90 SE6       30.15S WCI  26
$$

NEZ044-045-051>053-067-160400-
OMAHA AREA

CITY           SKY/WX    TMP DP  RH WIND       PRES   REMARKS
OMAHA EPPLEY   FRZ RAIN  32  28  85 E5        30.16F WCI  27
BLAIR          MIX PCPN  32  31  95 E5        30.13F WCI  27
FREMONT        CLOUDY    31  31 100 CALM      30.14F
MILLARD        CLOUDY    33  32  94 CALM      30.15F
OFFUTT AFB     CLOUDY    32  32 100 CALM      30.15F
PLATTSMOUTH    MIX PCPN  32  29  90 SE6       30.15S WCI  26
WAHOO          MIX PCPN  31  30  94 SE7       30.14F WCI  25
$$




USA.gov is the U.S. government's official web portal to all federal, state and local government web resources and services.